Showing default

ORBCOMM FM 116, 41189

Orbit data source: Space-Track

ORBCOMM FM 116, 41189 is a payload satellite owned by Orbcomm (US) in LEO that was launched on Tue, 22 Dec 2015 UTC via an FALCON 9 launch vehicle from the Air Force Eastern Test Range (AFETR). Payload-class satellites include a variety of spacecraft equipped with specific instruments for various scientific and technological missions. These include communications satellites like Starlink; space stations such as the ISS; scientific satellites like the Hubble; Earth observation satellites from companies like Planet Labs, Umbra, and HawkEye 360; GPS; miniature CubeSats for education and research; and military/defense satellites.

Loading next visibility...
Identifier
41189, 2015-081L
Orbit
LEO
Country
Flag of USUS / ORB
Related business
Manufacturer
SNC Louisville
Mission
Operational Commercial Communications
Bus & Motor
SN-100A, Unknown motor
Mass
172 kg wet, 158 kg dry
Launch date (UTC)
2015-12-22 (10 years ago)
Launch vehicle
FALCON 9
Launch site
Air Force Eastern Test Range (AFETR)
Object type
Payload
Rocket body
Debris
Shape & HBR
Box + 1 Pan + 1 Ant, 6.5 m
Radar Cross Section
2.222 m², Medium (>0.1 m² and < 1m²)

Expand to show TLE details & history
Last TLE update: 22 hours ago

TLE from 22 hours ago
0 ORBCOMM FM 116
1 41189U 15081L   25257.39905490  .00000599  00000-0  16446-3 0  9995
2 41189  47.0017 134.1664 0001876 227.1975 132.8753 14.58377756518673
Epoch: 2025-09-14T09:34Z
TLE epoch observation values (Epoch: 2025-09-14T09:34:38.343Z)
Latitude
-0.00002°
Longitude
-3.112°
Altitude
699.536 km
Speed
7.507 km/s
True Right ascension
08h 56m 39s
True Declination
0° 00' 00"
Sunlit
Object was in daylight at epoch
Visualization orbit readout
Latitude
Unknown
Longitude
Unknown
Altitude
Unknown
Speed
Unknown
Apparent Right ascension
Unknown
Apparent Declination
Unknown
Sunlit
N/A
Visualization observer readout
Local Sidereal Time
00:35:29
Azimuth
Unknown
Elevation
Unknown
Doppler factor
Unknown
Orbital elements
Apogee altitude
700.979 km
Perigee altitude
698.324 km
Semi-major axis
7,077.788 km
Eccentricity
0.00019
Inclination
47.0017°
RAAN
134.1664°
Arg. of periapsis
227.1975°
True anomaly
132.89105°
Mean anomaly
132.8753°
Eccentric anomaly
132.88318°
Mean motion
3.64499 °/min
Orbital period
98.77 mins
BSTAR
0.00016446
Loading maneuver chart data...
Computing Atmospheric mass density...
Loading historical data...
Loading historical data...
Loading historical data...
Loading historical data...
Loading historical data...
Loading historical data...
Loading historical data...

Documentation

Showing up to 5 results
|